This demonstration page uses our WeatherBlox Daily Observations layout. Learn more.

Left ArrowRight Arrow

Hourly Observations for March 22, 2020

Temp ( °F °C ) Dew Point ( °F °C ) Humidity (%) Winds ( mph kmh ) Pressure ( in mb ) Visibility ( mi km ) Precip ( " mm )
12:53 am 00:53 Clear 50 10 42 5.6 74 74 NNE 5 7 30.13 1020 10 16 0.00 0.00
1:53 am 01:53 Clear 47 8.3 40 4.4 77 77 N 3 6 30.13 1020 10 16 0.00 0.00
2:53 am 02:53 Clear 47 8.3 41 5 80 80 N 5 7 30.13 1020 10 16 0.00 0.00
3:53 am 03:53 Clear 45 7.2 40 4.4 83 83 N 5 7 30.12 1020 10 16 0.00 0.00
4:53 am 04:53 Clear 45 7.2 40 4.4 83 83 N 5 7 30.11 1020 10 16 0.00 0.00
5:53 am 05:53 Clear 45 7.2 40 4.4 83 83 NNW 3 6 30.12 1020 10 16 0.00 0.00
6:53 am 06:53 Clear 42 5.6 38 3.3 85 85 Calm 30.12 1020 10 16 0.00 0.00
7:53 am 07:53 Sunny 43 6.1 40 4.4 89 89 Calm 30.12 1020 10 16 0.00 0.00
8:53 am 08:53 Sunny 51 10.6 41 5 69 69 N 3 6 30.11 1020 10 16 0.00 0.00
9:53 am 09:53 Sunny 55 12.8 42 5.6 62 62 NNE 6 9 30.11 1020 10 16 0.00 0.00
10:53 am 10:53 Sunny 60 15.6 43 6.1 53 53 Calm 30.09 1019 10 16 0.00 0.00
11:53 am 11:53 Sunny 64 17.8 44 6.7 48 48 VRB 5 7 30.07 1018 10 16 0.00 0.00
12:53 pm 12:53 Sunny 66 18.9 44 6.7 45 45 SSE 3 6 30.04 1017 10 16 0.00 0.00
1:53 pm 13:53 Sunny 68 20 41 5 38 38 undefined N/A 30.01 1016 10 16 0.00 0.00
2:53 pm 14:53 Sunny 71 21.7 39 3.9 31 31 VRB 3 6 29.98 1015 10 16 0.00 0.00
3:53 pm 15:53 Sunny 72 22.2 39 3.9 30 30 VRB 6 9 29.96 1014 10 16 0.00 0.00
4:53 pm 16:53 Sunny 71 21.7 41 5 34 34 S 12 19 29.93 1014 10 16 0.00 0.00
5:53 pm 17:53 Sunny 69 20.6 41 5 36 36 SSE 13 20 29.93 1013 10 16 0.00 0.00
6:53 pm 18:53 Sunny 66 18.9 40 4.4 39 39 S 12 19 29.93 1014 10 16 0.00 0.00
7:53 pm 19:53 Clear 63 17.2 40 4.4 43 43 S 8 13 29.93 1014 10 16 0.00 0.00
8:53 pm 20:53 Clear 61 16.1 40 4.4 46 46 S 5 7 29.94 1014 10 16 0.00 0.00
9:53 pm 21:53 Clear 55 12.8 42 5.6 62 62 Calm 29.96 1014 10 16 0.00 0.00
10:53 pm 22:53 Clear 52 11.1 41 5 66 66 Calm 29.95 1014 10 16 0.00 0.00
11:53 pm 23:53 Clear 49 9.4 42 5.6 77 77 ENE 3 6 29.94 1014 10 16 0.00 0.00

Powered by AerisWeather